Location: Unspecified
(33.6682°S, 0.0000°E)
Time: 13:35:10
(UTC+00:00)

Vanguard 2 Rocket - Pass Details

Date: 19 June 2019
Orbit: 553 x 3327 km, 32.9° (Epoch: 16 August)

Event Time Altitude Azimuth Distance (km) Brightness Sun altitude
Rises 09:47:21 0° 298° (WNW) 6,426 11.2 24.6°
Reaches altitude 10° 09:52:17 10° 300° (WNW) 5,008 10.7 25.2°
Maximum altitude 10:05:04 63° 16° (NNE) 1,678 9.3 26.6°
Drops below altitude 10° 10:12:08 10° 95° (E) 2,883 9.9 27.3°
Sets 10:14:16 0° 99° (E) 3,598 10.2 27.5°
